{"data":{"norad_id":44337,"epoch":"2026-09-17T17:16:03.319104Z","epoch_age_seconds":254512,"freshness":"STALE","line1":"1 44337U 19035A   26260.71948286 -.00000147  00000+0  00000+0 0  9991","line2":"2 44337  55.2501 158.0504 0038481 210.6001   6.7827  1.00272052 26599","mean_motion":1.00272052,"eccentricity":0.0038481,"inclination_deg":55.2501,"raan_deg":158.0504,"arg_perigee_deg":210.6001,"mean_anomaly_deg":6.7827,"bstar":0,"rev_number":2659,"period_min":1436.0930800539,"perigee_km":35624.266294533,"apogee_km":35948.773928595,"semimajor_km":42164.657111564,"source":"CELESTRAK","updated_at":"2026-09-20T09:00:46.712165Z"}}